Wind_Speed
27 27 28 29 32 33 33 32 32 30 28 27 29 29 29 31 30 27 27 28 28 27 26 25 26 25 24 23 22 23 24 24 24 24 22 20 19 18 17 17 17 17 17 17 17 16 17 18 18 18 18 18 17 16 17 16 15 15 14 14 14 13 12 12 10 6 6 7 9 9 11 11 10 10 10 9 9 9 6 6 9 10 9 9 11
29 29 29 30 33 34 32 31 32 30 28 29 30 29 29 31 29 28 29 29 28 29 27 26 26 26 24 23 23 24 25 25 25 24 22 21 20 20 18 18 18 18 18 18 18 18 18 19 19 19 19 18 17 16 16 16 15 15 15 14 13 13 13 13 12 9 8 9 10 10 10 10 10 10 11 9 8 7 7 7 8 8 8 6 7
31 31 30 31 33 33 31 30 32 32 30 30 31 31 30 30 30 29 29 29 29 29 28 27 27 27 25 24 23 24 24 24 23 23 23 22 21 20 19 19 19 19 19 19 19 18 18 19 19 19 19 19 18 16 15 15 15 15 15 15 13 13 13 14 13 12 10 11 11 10 10 10 10 10 10 9 7 7 7 8 7 7 8 7 6
31 31 30 30 31 31 30 30 31 32 32 31 33 33 30 30 31 31 29 29 30 30 28 27 28 28 26 24 24 23 23 23 22 23 23 22 21 21 20 20 20 20 20 20 19 19 19 20 20 19 19 18 18 17 15 14 14 14 14 14 14 13 12 13 14 12 9 10 10 10 10 10 10 10 9 9 8 8 7 7 7 7 7 7 7
30 30 30 30 30 29 30 31 31 32 33 32 33 33 31 30 31 31 30 29 29 30 30 29 29 29 27 25 25 24 24 24 24 23 23 22 22 22 21 21 21 20 20 20 20 20 20 20 20 18 18 18 17 17 15 15 14 13 13 13 13 13 12 12 13 11 9 9 9 9 9 9 10 10 9 9 8 9 9 9 8 7 7 7 7
31 31 30 30 30 30 31 32 31 33 35 33 30 30 30 30 30 31 31 30 29 30 31 31 30 30 28 26 26 25 25 26 25 24 24 23 22 22 21 21 21 20 20 20 20 20 19 19 19 18 19 18 18 17 16 16 15 14 14 14 13 13 12 11 12 11 9 9 9 9 10 10 10 10 9 9 7 7 8 8 9 9 8 8 7
31 31 30 30 30 30 32 32 32 32 34 32 29 29 31 31 30 32 32 30 29 30 31 31 31 30 28 27 27 26 26 27 26 25 25 24 23 22 22 21 20 20 20 20 20 19 19 18 19 19 19 18 18 17 17 16 16 15 15 14 13 13 13 12 11 11 11 11 10 10 11 11 11 9 8 8 7 6 6 7 7 8 7 7 8
30 29 29 29 30 31 32 32 33 32 32 32 30 29 31 31 31 31 31 30 30 30 30 31 31 29 28 27 27 27 28 27 26 25 25 24 22 22 22 21 20 19 20 19 19 18 18 18 18 19 19 18 18 17 17 17 16 15 15 14 13 13 13 12 12 12 12 11 10 11 11 11 10 9 8 8 7 8 8 7 7 6 6 7 8
29 29 30 30 30 31 32 32 32 32 31 32 32 30 30 31 31 30 30 31 30 29 30 30 30 29 28 28 27 27 28 28 27 26 25 23 22 23 23 21 20 20 19 18 18 17 17 18 18 18 18 18 18 18 17 17 17 16 16 15 14 14 14 13 13 12 12 12 11 11 11 11 11 10 9 9 8 7 6 6 6 7 7 8 8
29 30 30 31 31 31 31 30 30 31 32 32 32 31 31 31 31 31 31 31 29 28 29 30 30 29 29 29 28 27 28 28 28 29 29 26 24 23 22 21 20 21 19 17 17 17 17 17 16 17 19 19 19 19 19 19 18 17 16 16 16 15 14 13 13 13 12 12 12 12 11 10 11 11 10 9 8 6 5 6 7 7 6 7 8
28 30 30 31 31 30 29 29 29 30 31 31 30 31 31 31 31 31 31 31 29 27 29 30 30 30 29 29 29 28 27 27 28 30 31 29 26 23 21 20 21 21 19 17 17 17 18 17 16 18 21 21 21 22 21 21 20 18 18 18 18 17 15 14 13 13 12 12 11 11 11 10 10 10 10 9 8 7 6 6 6 6 6 6 6
29 29 30 30 30 29 28 29 29 28 30 31 30 30 31 30 28 29 31 30 28 26 28 30 30 29 29 30 31 29 27 28 31 32 32 32 28 24 21 20 21 21 19 18 18 18 18 18 17 18 21 22 22 23 23 23 21 19 19 20 20 18 16 15 13 11 11 11 11 11 11 10 10 10 9 9 8 7 7 7 6 6 6 6 6
30 29 30 29 28 28 29 28 28 28 30 31 30 30 31 30 29 30 31 29 27 26 28 29 29 29 28 29 31 30 28 30 32 33 34 35 32 26 22 20 20 20 18 18 19 18 19 20 18 17 20 22 22 22 23 24 22 20 20 20 20 19 17 16 14 10 9 10 10 10 10 9 9 10 10 9 7 7 7 7 7 7 7 6 6
30 29 29 29 28 28 28 27 27 28 29 31 30 30 31 30 31 31 30 28 28 27 28 28 28 29 27 26 28 29 29 32 34 35 35 37 36 31 24 20 20 20 18 18 19 19 19 20 19 18 20 23 23 20 21 23 22 21 20 18 18 19 19 19 16 12 11 9 7 9 10 9 8 8 9 9 8 7 7 6 6 6 6 7 8
32 29 28 29 28 28 28 28 27 28 30 31 30 31 31 31 32 32 30 31 30 28 28 27 26 27 28 27 28 29 31 35 36 36 35 36 37 33 26 22 20 19 18 18 18 19 19 20 19 18 20 23 24 22 21 21 21 20 17 14 13 16 19 20 18 14 11 8 6 6 8 9 8 7 8 9 8 7 6 5 5 6 7 8 10
34 29 28 28 28 29 29 28 28 29 31 31 30 30 31 32 33 33 31 32 30 29 30 30 28 27 27 29 31 29 31 35 36 36 35 35 35 32 26 23 21 19 19 19 18 19 20 20 19 19 19 22 25 25 22 20 19 18 16 14 12 12 15 18 19 18 14 12 10 7 8 11 12 10 10 10 8 7 6 6 7 7 8 9 9
31 28 28 29 29 30 29 29 28 29 31 32 32 32 34 35 36 34 32 31 30 31 32 31 32 32 29 31 33 29 30 34 36 35 35 34 35 31 25 23 23 21 20 19 19 19 20 20 20 19 18 21 25 27 24 20 19 18 16 15 14 12 12 15 19 21 20 17 16 13 10 12 14 13 13 12 11 9 6 6 7 8 8 9 8
29 28 28 29 30 30 29 29 29 30 33 35 34 34 36 39 39 36 33 30 31 34 34 30 32 34 31 32 34 29 28 34 36 35 35 34 35 32 25 22 24 21 20 20 19 18 20 21 21 19 18 21 25 28 27 21 18 17 17 15 14 14 13 14 17 21 22 20 19 17 15 14 15 14 14 14 15 12 10 8 7 8 9 9 9
29 28 29 30 30 30 30 30 30 32 35 34 32 35 37 36 34 33 31 29 28 31 33 29 28 29 28 31 33 28 27 33 36 35 35 35 36 34 28 24 24 22 21 20 18 17 18 21 23 20 18 20 25 28 29 24 17 16 17 15 15 15 14 14 15 18 22 22 20 18 17 16 16 16 15 15 17 16 15 13 10 10 10 10 9
30 29 30 30 29 30 30 30 31 32 33 32 31 35 36 32 30 31 31 29 28 29 30 29 27 26 26 29 31 28 28 34 38 37 36 37 38 36 30 26 26 23 20 19 18 18 17 19 24 24 19 19 24 27 30 26 17 13 15 15 14 15 15 14 14 15 19 21 18 17 16 15 15 15 15 16 17 18 18 16 14 12 11 11 10
31 30 29 29 29 29 29 30 30 29 31 32 32 34 33 29 30 32 29 27 27 26 26 25 24 24 24 26 28 27 28 33 39 38 37 38 40 37 30 27 26 22 20 19 17 18 18 17 23 27 22 19 22 24 28 28 21 14 13 15 15 15 14 14 15 14 15 16 16 16 15 15 15 15 15 15 17 18 19 19 18 16 14 13 11
31 31 29 27 28 28 28 28 28 27 28 31 31 31 31 29 31 31 27 24 24 23 22 22 22 22 22 24 27 27 27 31 37 39 38 39 41 39 33 29 26 21 20 19 17 18 19 17 21 28 26 20 19 21 23 28 25 18 14 15 16 15 14 13 14 14 14 15 15 16 16 15 15 15 15 15 15 16 16 17 17 17 17 15 14
30 30 29 27 26 27 26 25 26 27 28 29 30 29 29 28 29 28 26 25 24 22 22 23 22 22 22 24 26 25 25 29 35 38 40 40 41 42 37 32 28 23 20 19 18 18 18 17 20 27 27 22 18 18 19 24 27 24 18 15 16 17 15 13 12 13 14 15 15 16 16 16 15 15 15 14 14 15 15 15 15 16 16 16 16
30 27 26 25 24 25 24 23 23 24 26 28 27 27 27 27 26 25 26 27 25 24 24 24 22 21 21 23 23 21 22 28 32 36 40 41 42 44 40 33 30 28 22 19 18 17 17 19 21 25 28 26 24 22 21 23 28 29 22 17 16 17 16 14 13 13 14 15 16 16 16 15 15 14 14 13 13 13 14 14 14 14 14 14 15
27 25 23 23 23 23 23 22 22 22 24 26 26 26 26 26 25 25 26 26 25 24 23 21 21 21 21 22 22 19 20 27 30 31 37 41 42 44 42 35 31 30 23 17 18 19 19 20 21 22 25 27 25 23 23 25 27 28 26 21 17 16 15 14 14 14 14 15 16 16 16 16 15 14 13 12 12 12 13 12 12 13 13 14 14
25 25 24 24 25 24 23 23 23 23 23 24 24 25 26 26 26 25 24 24 23 21 19 19 19 19 18 18 19 17 18 25 30 30 34 40 43 45 43 35 29 28 22 18 19 21 20 21 21 21 21 21 22 24 25 26 26 26 25 23 19 15 15 16 15 15 16 16 15 16 15 14 14 14 13 13 13 13 12 12 12 12 13 14 14
19 21 24 24 25 25 24 23 23 23 23 24 23 22 22 24 24 22 20 19 18 17 19 21 19 17 16 16 17 16 17 23 30 32 35 40 44 46 44 35 28 26 23 20 21 21 20 21 20 17 17 18 23 26 25 25 26 26 25 24 20 17 16 16 16 16 17 16 15 15 14 14 13 14 14 14 15 14 13 13 13 14 14 14 14
8 11 15 18 19 21 22 22 22 21 20 21 21 19 18 19 20 19 18 17 15 13 17 19 19 19 18 17 17 16 15 21 31 37 40 42 44 46 45 38 32 29 25 23 23 22 21 20 18 16 18 21 23 23 21 21 24 26 25 22 19 18 17 16 17 17 17 16 15 14 14 14 14 14 14 13 13 13 14 14 15 15 14 13 14
10 9 10 13 14 14 16 18 18 16 14 14 16 18 19 19 17 15 17 19 18 17 18 19 19 19 19 19 21 19 17 23 35 40 40 42 45 49 49 43 37 33 29 27 25 21 19 20 18 17 20 21 20 19 18 17 19 22 23 20 18 18 19 18 18 18 18 17 16 15 14 14 14 14 13 12 13 13 14 15 15 14 14 14 14
7 6 7 7 7 8 10 12 12 11 11 12 12 13 16 17 16 15 17 20 23 24 24 24 22 21 21 21 22 23 24 31 37 37 36 39 43 48 50 47 41 34 29 27 25 20 19 20 19 18 18 18 18 18 18 18 18 19 21 21 20 20 19 19 19 19 18 18 17 16 15 15 14 13 12 13 13 14 14 14 14 14 14 13 13
9 8 9 8 6 5 4 4 6 7 9 10 11 12 13 15 18 18 18 20 24 26 27 25 23 23 24 21 21 24 26 30 31 33 35 38 41 46 47 46 43 38 33 31 27 22 21 21 20 19 19 18 19 19 19 19 20 19 19 21 21 20 20 20 20 19 19 19 18 17 16 15 14 13 13 13 13 13 13 14 14 14 14 13 13
13 11 11 9 8 7 5 4 1 2 5 7 9 12 12 12 15 18 18 19 21 25 28 28 26 25 25 23 24 26 26 25 26 29 33 37 42 47 46 45 43 40 37 34 29 24 23 22 20 20 20 19 20 22 21 21 21 20 19 20 21 22 22 21 21 20 19 20 19 18 17 15 14 14 13 13 13 12 12 12 13 13 13 13 13
12 12 11 9 7 7 6 4 2 2 4 5 7 9 9 9 10 13 15 16 17 20 24 27 26 24 23 23 24 25 24 24 26 28 31 36 43 46 46 44 42 40 39 35 29 23 22 22 21 22 22 22 22 23 23 22 21 20 20 20 21 22 22 21 21 21 20 19 19 19 18 16 15 14 14 13 13 13 12 12 12 12 12 11 11
10 12 12 9 7 7 6 4 3 3 4 5 6 6 8 8 8 9 10 11 11 14 18 22 24 24 22 22 22 22 22 24 27 28 30 35 41 44 43 40 38 39 40 38 31 25 22 22 22 22 22 22 22 22 22 22 21 20 21 20 19 20 20 21 21 22 21 19 18 18 18 17 17 16 15 14 14 13 13 13 13 12 12 11 11
10 11 12 9 6 5 6 5 3 3 4 4 5 6 7 6 7 9 11 11 10 12 14 18 20 21 21 21 21 21 22 24 27 26 28 34 41 42 38 35 35 37 38 36 30 25 22 21 21 21 22 22 22 22 22 22 22 21 20 19 19 19 19 19 21 21 20 20 20 19 18 17 17 18 17 16 16 15 14 14 14 14 13 13 12
11 10 11 10 7 5 4 3 3 4 4 3 4 6 5 4 5 8 10 11 12 13 13 12 14 16 18 19 21 21 22 24 24 24 27 35 41 42 38 35 35 35 33 29 26 24 23 22 22 21 21 21 21 22 22 22 22 21 20 19 18 18 18 18 19 19 20 21 21 21 20 19 18 18 17 17 17 17 16 16 15 15 14 14 12
15 14 13 12 11 9 7 5 6 6 5 3 4 4 2 2 4 6 7 8 11 13 11 10 12 14 15 17 20 21 21 21 22 25 29 35 41 42 39 35 35 33 29 27 27 25 24 24 23 22 22 21 21 21 21 21 21 21 20 20 19 18 18 19 19 19 20 20 20 20 21 20 19 18 18 18 17 17 17 17 16 16 16 15 13
16 18 17 14 12 11 10 9 9 8 6 4 3 2 1 2 3 5 6 7 10 11 9 9 11 12 13 17 20 21 20 20 21 25 30 35 39 40 36 33 34 33 30 29 29 26 24 24 24 22 21 21 20 20 20 21 22 21 20 19 19 19 20 20 21 21 20 19 19 20 20 20 20 19 19 19 18 17 17 17 16 16 16 15 14
16 17 19 17 13 11 11 10 9 7 5 4 3 1 1 1 3 4 5 7 9 9 7 8 10 10 11 17 21 21 21 22 23 26 32 35 36 35 31 29 29 28 26 24 24 23 21 21 21 21 21 20 19 19 19 21 22 21 19 19 19 20 21 20 20 21 20 18 19 20 19 19 19 19 19 19 19 19 18 18 17 17 17 15 15
15 15 17 17 14 12 11 10 9 8 7 5 3 2 1 1 2 3 3 4 5 6 6 7 9 9 12 19 23 22 21 22 23 26 30 31 31 31 30 27 25 24 22 20 21 21 21 18 17 17 18 18 17 17 18 20 22 21 21 20 21 21 21 21 20 20 19 19 19 19 19 18 18 18 18 18 18 18 18 18 18 18 18 17 17
16 14 15 16 15 13 12 11 11 10 8 7 6 4 2 3 3 4 4 3 3 3 3 3 4 7 12 20 22 19 16 17 20 23 26 27 27 28 26 22 18 18 17 15 16 18 19 18 16 15 15 15 15 15 17 19 21 22 23 23 23 22 21 22 22 22 21 20 20 19 18 18 17 17 17 17 17 17 17 17 18 18 18 18 18
17 15 15 16 16 15 14 13 12 11 10 9 8 7 5 4 5 6 8 7 6 6 6 5 5 4 8 15 17 13 11 14 17 20 23 24 23 24 22 16 12 13 16 15 14 15 16 18 18 16 15 15 15 15 16 18 20 21 22 23 22 20 18 19 20 20 20 21 21 19 18 17 16 16 16 15 15 16 16 17 17 18 18 18 18
20 18 17 17 17 17 16 14 13 11 11 10 10 9 7 6 5 7 9 9 8 8 8 7 7 7 9 13 13 9 8 13 15 16 19 20 19 20 21 16 10 11 15 17 15 14 14 17 18 17 16 15 15 15 16 17 18 18 18 18 18 18 18 18 18 19 20 20 19 18 18 18 16 15 16 16 16 16 16 17 17 17 16 16 17
22 21 20 18 17 18 18 16 14 11 10 10 11 11 10 10 9 9 11 11 9 8 7 7 7 8 11 15 14 8 6 10 12 12 14 15 15 17 21 19 14 11 14 16 15 14 13 14 16 16 16 15 15 16 16 15 15 16 17 17 19 21 20 20 20 20 20 20 18 17 18 19 19 17 16 16 16 16 16 16 16 16 16 16 16
20 21 21 20 19 18 18 18 18 17 15 15 14 13 13 13 13 13 14 14 13 11 9 7 7 8 10 14 14 8 5 7 8 7 7 8 9 12 16 18 16 14 14 15 15 14 12 12 13 14 14 14 14 16 17 15 13 15 18 20 21 22 21 20 20 18 18 19 19 17 16 18 18 18 17 16 16 16 16 15 15 16 17 18 18
18 19 20 20 21 21 21 21 20 20 20 20 19 18 17 17 16 15 14 14 14 14 12 10 9 9 9 9 11 8 5 6 6 5 4 4 4 5 7 10 11 13 14 15 16 15 14 13 12 12 12 13 12 13 15 16 14 15 18 19 20 19 18 18 18 18 18 19 20 19 17 17 16 16 16 16 15 14 15 16 17 17 18 18 19
21 20 20 19 20 23 25 26 24 22 22 22 21 21 20 19 18 17 16 15 15 13 12 11 11 10 9 7 5 5 4 4 3 3 3 3 2 1 1 2 3 6 8 11 13 14 14 14 15 15 14 14 12 11 12 14 14 14 15 16 16 16 16 17 17 18 19 20 21 19 18 16 15 15 16 17 16 14 15 17 18 19 19 18 18
24 23 23 22 22 22 24 26 27 26 25 23 23 23 22 20 20 19 18 18 18 15 12 11 11 11 10 9 7 5 4 3 2 1 1 1 2 1 0 1 2 2 3 5 7 9 9 12 15 15 15 15 15 14 13 12 12 13 13 15 17 19 19 18 16 16 18 19 20 20 19 18 17 16 16 18 18 17 17 17 18 19 20 19 18
22 22 22 22 21 20 20 22 25 26 25 25 26 26 25 24 24 23 21 20 20 19 16 13 12 11 10 9 7 7 6 4 2 1 0 1 2 2 3 3 4 3 3 3 5 7 7 9 12 14 16 17 18 17 16 15 14 14 16 17 19 21 20 18 16 16 18 19 20 21 21 22 22 20 17 17 17 18 18 18 17 17 18 19 18
18 19 20 21 21 19 19 21 22 24 25 26 26 25 24 23 24 25 25 24 23 21 20 19 17 15 13 11 9 8 7 7 6 5 4 3 2 3 3 4 5 6 7 8 9 9 9 9 11 13 16 19 20 20 21 20 19 18 20 22 22 21 20 19 19 19 20 20 20 20 21 22 23 22 20 18 16 17 20 21 19 16 16 17 17
18 18 19 20 21 21 21 21 21 22 23 23 22 21 22 22 22 22 23 24 23 23 22 22 23 22 21 19 18 16 13 11 10 9 7 6 6 6 6 5 5 6 7 7 8 9 9 10 11 12 13 15 17 19 20 20 19 18 20 22 24 23 22 21 21 22 21 21 20 20 21 21 21 21 20 20 19 18 19 22 22 20 18 17 17
Wind_Direction
190 192 198 205 209 209 206 204 204 203 202 203 203 203 202 201 200 198 198 199 197 196 194 194 197 198 195 195 198 202 204 203 203 205 205 204 205 206 207 207 208 212 214 210 212 218 220 219 217 214 215 216 217 219 221 223 219 218 222 222 221 221 217 223 233 210 162 172 190 181 172 183 202 216 216 212 214 232 254 230 223 241 254 270 273
191 194 198 204 209 208 203 202 203 202 201 203 203 202 200 201 201 200 200 201 200 198 194 193 198 199 196 195 197 201 204 204 204 204 204 204 206 206 207 209 210 214 218 214 210 214 219 222 220 215 217 220 219 217 213 212 211 210 215 217 215 216 211 213 227 219 178 171 183 178 177 196 220 223 214 213 213 223 245 237 229 244 252 264 273
194 195 197 202 207 206 201 201 202 202 202 203 204 203 198 198 200 201 200 201 201 199 195 194 199 201 198 196 197 202 204 204 203 203 204 206 206 205 207 210 212 214 218 219 218 218 221 223 222 218 217 216 212 211 208 207 209 209 210 212 213 214 210 208 222 226 194 176 183 189 189 202 225 225 207 207 215 227 248 247 238 250 253 255 258
194 195 196 199 202 201 199 201 202 202 203 203 204 205 198 196 200 201 200 201 202 200 196 195 199 202 199 196 198 200 200 199 201 203 206 207 207 207 209 212 213 214 219 221 221 223 222 219 217 212 207 206 204 206 207 204 206 209 209 209 209 212 210 205 217 229 207 178 187 206 200 193 214 225 207 199 209 222 239 242 245 256 251 248 253
193 194 194 194 195 197 199 201 203 204 205 204 205 204 198 197 200 201 200 202 201 200 199 198 200 202 198 196 197 197 198 199 201 203 206 208 209 209 209 212 215 216 220 221 219 221 219 214 212 204 196 198 199 201 203 201 202 207 207 204 203 205 205 202 210 217 205 189 196 208 200 190 207 219 211 209 216 224 230 227 229 245 249 251 259
191 192 192 192 191 194 198 202 205 206 205 205 203 200 198 200 201 201 202 202 201 201 203 202 202 203 200 195 196 197 199 202 203 204 207 209 209 208 206 211 217 216 217 220 218 217 214 210 208 201 196 198 198 198 201 198 199 203 202 201 201 199 196 198 201 199 201 208 204 194 190 194 205 211 212 219 228 236 238 227 222 234 239 240 250
189 190 190 191 190 192 198 202 203 205 204 204 201 198 199 202 203 203 203 203 202 202 205 204 203 204 202 195 196 200 202 202 203 204 207 208 208 208 208 211 215 216 217 218 215 212 210 208 206 202 199 199 198 198 198 194 197 200 198 199 200 192 188 191 193 194 204 212 201 189 192 198 204 211 212 212 219 234 246 246 244 245 239 238 253
187 189 189 190 191 193 197 200 202 203 203 203 202 197 198 202 205 204 204 205 204 203 204 205 202 203 204 197 195 200 203 203 201 202 207 207 205 208 211 212 213 216 217 215 211 208 207 207 206 203 202 201 199 197 195 190 192 195 193 195 192 183 182 189 194 197 203 206 199 194 198 198 201 210 205 196 214 230 227 232 254 264 259 257 264
189 190 191 191 192 192 193 195 199 201 201 202 202 198 196 200 205 204 203 206 207 204 205 206 203 203 205 201 195 198 203 204 202 201 205 204 203 208 212 211 213 215 214 210 207 206 205 206 207 205 202 202 200 196 193 190 191 192 190 188 184 180 183 191 197 200 201 201 201 199 200 200 199 204 202 198 218 229 209 213 248 264 263 268 272
192 188 190 189 190 190 189 191 195 198 199 201 201 199 195 196 203 205 203 207 208 203 204 207 204 203 206 204 198 197 201 203 202 202 203 203 203 207 209 209 212 214 210 205 203 203 204 204 205 204 202 201 199 195 193 192 192 192 188 183 181 182 189 195 197 200 199 199 203 202 200 203 202 203 205 207 215 218 205 217 243 257 262 268 273
198 189 190 188 189 189 187 188 192 194 197 198 197 199 196 194 200 204 203 207 209 202 202 207 206 204 207 207 202 199 199 200 202 201 201 202 202 203 204 207 212 213 207 202 200 201 201 200 201 202 200 200 199 196 195 194 194 191 185 182 184 187 192 195 196 200 202 202 205 205 204 208 207 204 207 209 208 213 221 232 243 256 268 274 283
204 191 191 190 189 188 185 187 189 190 194 196 195 198 197 193 197 203 203 206 207 200 202 208 207 204 207 209 206 203 200 200 203 201 198 199 198 199 203 207 211 211 206 201 200 199 198 197 196 196 197 198 198 198 198 198 196 191 184 184 188 192 192 192 191 197 206 209 209 204 206 212 209 205 208 207 204 208 219 231 239 248 260 269 277
206 193 193 192 188 187 185 185 187 188 193 196 196 198 197 193 197 202 201 203 205 202 203 208 207 203 207 210 209 207 204 203 202 199 198 199 196 195 202 208 211 212 207 202 201 198 196 195 193 191 194 196 195 196 199 200 200 197 193 192 194 196 194 192 193 193 197 210 216 207 206 213 211 208 207 203 202 209 218 230 239 245 254 265 277
209 195 193 192 188 187 186 185 186 188 193 196 195 197 196 193 198 202 199 200 206 204 202 207 207 203 203 207 207 207 206 203 200 198 199 199 196 194 199 207 213 216 212 205 202 200 197 195 194 191 190 192 191 190 192 197 199 199 198 197 199 200 199 197 201 199 191 198 216 212 207 210 215 211 197 190 196 210 224 239 248 254 262 276 286
212 197 191 191 187 186 186 185 185 187 192 195 195 196 195 194 199 201 198 201 204 201 199 205 207 202 200 202 203 205 205 201 199 199 199 198 197 195 199 208 214 217 217 210 204 203 200 197 197 193 188 188 190 188 185 185 190 192 192 193 198 204 206 205 208 208 200 197 207 212 206 201 204 202 186 184 199 213 226 247 261 271 275 277 279
210 196 188 188 185 185 186 185 185 187 190 192 193 195 195 195 197 198 198 202 202 198 200 205 205 202 200 200 203 205 203 199 198 199 198 197 198 196 198 207 213 215 218 213 205 204 202 198 198 196 191 189 190 189 184 180 180 182 185 189 193 201 209 211 212 210 206 205 207 207 199 193 195 195 184 183 195 205 221 246 251 254 262 268 272
203 193 187 186 184 184 184 183 184 187 189 191 192 192 191 193 195 196 198 201 197 195 200 203 204 204 202 201 203 204 200 198 198 198 195 195 196 193 192 203 211 215 218 213 206 204 202 199 199 197 194 192 191 188 185 180 178 181 184 188 192 195 201 209 215 215 211 211 211 211 209 202 201 203 198 197 199 197 212 244 248 250 259 268 276
198 191 187 184 183 183 181 181 184 188 191 194 195 192 191 194 196 198 200 199 195 196 201 204 205 207 206 204 205 204 199 197 197 196 194 195 195 190 187 200 211 215 217 213 207 204 202 201 199 197 196 196 193 189 184 179 179 183 185 186 192 196 196 200 211 216 214 213 212 214 216 213 211 214 217 220 220 219 228 242 253 264 268 272 284
196 191 187 184 183 182 181 182 185 190 195 197 194 190 190 194 198 199 201 200 196 198 203 205 205 206 205 205 206 206 201 197 196 196 195 196 196 190 188 200 211 214 214 210 204 202 203 201 197 198 202 200 194 190 186 181 179 186 188 188 193 199 197 193 197 208 212 212 213 215 219 222 225 228 232 234 233 233 236 239 250 262 264 270 281
195 194 189 183 183 183 182 184 188 192 194 193 188 186 190 195 197 198 200 200 198 198 201 203 204 203 202 204 207 208 203 197 196 198 197 196 195 191 188 197 209 211 208 204 200 201 203 199 196 200 204 198 192 193 191 186 181 185 191 195 198 201 199 195 194 200 205 207 210 214 219 224 231 232 234 236 236 237 237 236 240 248 255 265 270
195 198 192 183 182 184 184 188 190 188 188 189 187 188 193 197 197 197 197 196 197 199 198 198 201 200 199 204 208 210 208 201 197 197 198 196 194 190 186 192 203 205 201 200 199 200 201 196 195 198 199 193 189 193 196 193 188 187 197 205 205 201 198 197 193 193 199 202 204 211 216 219 223 225 225 228 232 235 237 237 238 239 244 253 259
194 195 190 184 183 184 186 189 188 182 182 186 188 191 196 199 198 198 196 192 195 201 196 191 196 198 198 206 210 211 212 207 201 198 199 197 195 193 189 191 195 197 197 200 201 200 200 197 194 196 196 191 187 190 197 198 195 194 204 212 209 201 196 195 190 190 198 203 203 209 214 216 219 221 220 223 225 225 227 232 235 236 238 243 249
192 192 188 184 183 184 186 187 183 181 184 187 190 193 195 197 195 193 191 191 197 203 198 192 194 196 197 205 209 208 208 209 206 203 201 199 196 195 193 192 194 195 199 202 201 199 197 192 190 193 192 188 188 195 202 203 198 198 204 212 211 203 197 197 196 194 201 209 209 210 214 217 220 221 220 223 225 222 221 224 228 231 235 239 242
190 187 182 180 180 179 180 181 180 182 187 189 191 191 191 192 191 188 189 193 198 205 202 194 192 195 197 201 203 201 202 205 206 206 204 200 197 196 194 191 193 196 200 204 201 195 191 187 185 190 193 195 200 205 208 205 200 200 203 208 209 204 200 204 208 204 205 211 214 215 217 219 221 222 223 225 226 225 223 224 227 229 233 240 244
183 177 171 173 175 173 174 177 181 186 188 187 188 189 189 192 193 192 192 196 201 206 202 191 188 195 199 198 196 195 198 201 203 205 205 202 198 197 194 191 191 195 197 197 193 189 187 185 183 187 195 200 201 203 205 204 201 202 206 209 209 206 205 211 216 215 213 214 215 217 220 221 221 223 226 228 230 229 225 223 226 229 233 243 248
176 172 169 171 173 175 178 180 184 190 191 189 191 194 194 195 198 199 198 198 200 199 191 183 187 197 201 199 194 190 191 198 201 202 203 203 200 196 193 191 191 192 189 182 180 180 181 183 185 189 195 196 196 199 203 202 199 201 208 213 213 211 211 215 217 218 220 219 218 219 221 221 222 223 225 229 231 230 226 222 226 231 235 242 247
174 171 170 171 174 177 178 179 183 188 191 192 194 198 199 200 201 202 200 197 195 187 178 179 189 199 201 195 192 189 186 192 198 199 200 201 199 195 192 191 188 185 182 180 179 179 179 183 190 198 201 197 198 201 203 202 201 204 209 213 215 216 218 219 218 220 223 223 221 223 223 223 224 224 224 226 227 226 225 226 233 239 240 241 245
189 183 167 164 172 176 173 174 180 183 187 190 190 190 194 196 197 200 200 196 188 176 170 175 187 198 196 190 194 197 186 187 198 203 201 199 196 192 191 191 188 183 183 186 184 183 185 186 188 195 197 195 197 199 200 200 204 208 210 211 215 217 220 221 221 223 226 224 224 226 223 222 225 225 222 221 220 222 226 229 235 241 241 241 244
186 193 166 157 167 170 164 169 175 171 168 175 181 187 193 195 193 197 202 201 197 189 181 180 189 199 201 199 199 197 194 202 211 211 207 203 198 193 191 192 190 187 188 187 182 178 181 182 180 183 186 188 191 194 195 195 199 205 207 209 213 215 216 219 220 221 222 223 224 226 223 223 225 222 218 220 222 225 229 230 231 236 236 239 245
140 148 138 141 155 153 150 161 167 158 156 165 172 180 190 194 194 197 202 206 207 205 199 196 202 212 217 214 202 197 209 221 220 214 209 207 202 196 193 193 190 188 186 183 177 172 173 179 181 182 183 185 189 193 195 195 197 201 204 206 209 212 212 215 217 218 220 221 223 225 224 224 224 219 219 225 228 231 233 230 230 233 233 235 242
43 58 61 55 52 66 100 149 162 164 174 179 174 171 178 191 200 204 207 208 210 212 213 214 218 220 221 218 207 206 220 230 224 214 210 208 202 197 195 192 191 189 185 182 181 179 177 180 183 185 187 189 191 192 195 198 200 202 201 202 206 210 211 213 215 216 217 218 221 223 222 222 223 223 226 230 231 233 232 227 226 231 233 236 243
30 35 41 44 49 49 37 28 48 186 199 195 188 184 182 190 202 211 217 216 213 214 218 221 221 217 214 214 213 213 220 230 227 217 211 206 202 199 195 192 191 190 185 183 185 184 181 183 187 188 190 194 194 195 199 202 202 201 199 198 202 207 211 213 214 215 216 216 216 218 220 220 222 226 229 231 231 234 235 230 227 228 230 234 241
37 29 23 25 37 45 43 29 354 284 234 217 207 198 191 191 199 208 218 223 219 215 217 220 221 219 216 216 219 219 222 230 230 219 210 206 202 198 194 192 190 187 183 183 186 186 184 189 193 192 193 197 198 197 200 202 200 199 200 202 204 207 211 213 213 214 217 216 212 211 215 220 224 226 227 227 229 232 235 237 237 235 233 237 241
46 40 27 16 15 25 30 14 327 293 256 239 228 217 213 214 205 194 199 212 215 212 215 220 223 225 223 219 220 221 223 226 225 216 207 204 200 193 190 188 186 185 185 186 187 188 191 195 196 194 196 200 199 197 198 200 201 201 204 206 206 207 209 211 213 214 216 213 209 210 213 217 220 222 223 224 226 229 231 233 237 240 241 244 247
39 42 36 28 22 24 20 3 332 303 276 254 242 242 236 220 199 191 194 198 198 202 211 217 219 221 221 219 218 218 216 217 218 212 206 201 195 187 181 179 180 184 188 189 190 193 198 200 200 198 198 200 200 199 198 199 201 202 203 204 206 208 208 210 212 214 213 211 212 215 217 218 218 218 220 221 223 226 229 230 233 236 239 242 245
24 23 24 26 25 23 12 354 338 321 303 286 277 273 257 204 183 196 201 199 199 201 206 210 207 206 209 214 216 213 211 211 210 205 203 200 192 183 177 177 179 182 186 189 193 197 201 204 204 202 202 202 201 201 201 200 200 201 202 204 206 207 209 211 213 214 216 218 220 220 218 217 218 217 218 221 222 224 228 230 231 232 236 241 244
25 20 14 10 8 8 5 2 359 348 330 312 306 296 272 181 194 206 199 194 198 200 200 197 192 189 192 201 206 206 203 203 202 201 201 198 191 185 183 183 182 181 186 193 197 199 204 207 206 205 205 204 203 203 203 200 199 200 205 208 209 211 216 219 220 220 221 223 224 221 217 217 218 217 217 221 224 226 228 230 230 231 233 235 237
31 26 19 13 10 9 8 7 3 356 344 329 318 298 194 176 206 208 200 194 195 196 194 191 189 186 184 189 195 196 191 186 186 188 189 188 186 186 186 186 184 185 190 195 197 200 206 209 208 207 206 205 204 204 202 200 201 203 208 211 214 219 224 224 224 226 227 225 223 221 218 217 218 217 217 221 225 228 229 229 230 232 231 226 224
29 26 22 20 20 19 15 11 7 3 356 348 349 19 127 176 195 196 197 193 190 191 193 192 192 192 187 184 184 183 179 174 172 174 177 180 183 186 187 189 190 193 197 198 199 201 206 208 207 207 206 206 206 204 201 201 204 208 211 212 216 223 227 225 225 228 228 226 224 222 219 217 217 216 218 222 224 226 227 228 229 231 231 227 223
24 24 24 22 21 24 23 18 13 8 2 356 358 24 79 122 170 186 190 185 181 184 191 192 191 194 193 187 182 178 175 172 171 171 174 178 182 186 188 189 193 199 204 204 200 201 205 206 204 203 204 205 205 202 201 204 209 214 217 218 219 223 225 224 228 231 229 225 224 221 219 219 218 218 220 222 224 226 226 226 228 230 229 229 231
23 24 26 24 21 24 27 25 20 15 11 11 12 17 55 94 109 117 119 119 129 142 162 179 179 186 195 192 186 180 174 170 169 171 174 177 182 187 188 189 193 200 204 202 197 198 202 205 208 208 205 203 202 201 203 210 216 221 223 223 222 223 220 217 221 227 228 226 223 219 218 220 220 218 220 223 224 227 227 226 228 229 227 227 231
23 20 24 25 23 24 25 25 25 22 18 22 24 22 32 65 91 104 105 103 109 117 116 105 102 134 181 184 177 171 170 170 168 168 172 176 181 185 186 189 198 204 203 199 195 198 204 209 213 214 210 206 207 208 210 214 219 222 223 222 223 226 225 221 220 221 222 223 222 220 219 220 219 219 223 225 226 228 229 228 228 228 227 227 229
26 22 25 28 28 29 26 24 26 27 25 29 33 31 35 48 68 92 100 101 105 111 110 106 107 123 153 160 151 140 153 165 163 160 164 170 177 182 184 187 192 194 193 191 190 197 204 206 206 208 208 209 212 216 219 222 226 227 226 221 216 218 225 229 228 223 219 217 217 217 215 215 217 221 224 226 226 227 229 230 229 229 229 230 230
28 25 27 28 28 30 29 27 30 32 33 40 45 43 44 48 53 65 76 80 87 97 104 111 121 132 145 151 145 131 142 162 157 150 158 170 179 183 188 193 195 189 186 187 190 196 202 202 203 207 211 216 220 223 224 230 235 230 225 222 219 219 221 225 225 222 215 210 210 212 212 213 217 222 224 224 225 227 228 229 227 227 230 232 233
29 28 30 29 27 26 24 26 33 39 41 45 49 50 51 54 54 56 58 62 69 77 78 87 110 125 142 158 163 155 124 126 129 124 140 164 179 188 196 205 211 209 201 197 198 204 209 212 214 217 220 225 227 224 223 229 234 230 227 228 228 226 224 221 217 214 208 204 205 211 214 214 216 219 223 225 225 223 222 222 222 225 231 233 235
31 30 31 30 29 27 24 23 29 39 45 48 51 55 59 61 63 63 63 65 72 76 71 71 90 109 123 151 172 171 131 104 100 96 106 137 168 191 207 217 223 226 225 222 222 224 223 219 216 218 224 231 235 229 225 226 227 227 229 229 228 227 223 214 207 208 212 212 211 214 218 219 218 217 221 224 222 217 217 221 225 228 231 232 233
35 32 31 30 30 31 31 28 29 34 39 42 44 48 54 59 62 64 63 64 70 77 80 83 89 96 97 105 138 160 151 132 114 87 80 93 105 129 255 258 248 243 239 235 233 233 231 228 226 226 230 236 237 231 226 226 225 222 221 219 218 218 211 201 201 211 219 218 216 216 219 221 220 217 218 220 219 218 221 225 228 230 231 232 232
36 33 33 33 32 31 31 31 31 33 33 32 32 36 41 47 51 51 50 49 50 54 62 71 76 79 79 80 86 99 113 133 152 149 120 113 108 107 174 233 231 240 244 245 246 246 244 241 237 232 230 230 226 221 222 227 227 222 219 217 214 209 202 198 205 213 213 213 218 222 223 222 218 215 217 223 226 227 226 226 227 227 229 231 231
35 33 33 33 32 30 30 31 32 33 33 32 31 32 34 36 37 39 41 41 41 42 45 49 53 59 64 68 69 69 69 71 76 81 221 216 200 197 197 191 191 200 218 249 266 269 263 253 244 233 225 224 224 223 226 228 223 217 217 218 214 209 209 214 218 213 211 221 230 231 226 223 222 219 220 226 231 232 230 229 229 228 227 229 230
34 37 36 35 33 31 31 32 33 32 33 33 31 29 29 28 28 32 34 34 32 32 34 37 38 39 41 43 45 45 46 47 46 40 25 2 330 297 272 252 246 252 258 264 271 273 270 263 255 243 234 232 234 235 235 234 229 225 226 225 221 222 230 236 231 222 224 233 237 231 225 226 227 227 225 224 226 231 232 230 231 233 232 230 229
31 38 41 42 40 35 32 32 31 29 29 30 28 25 23 21 20 23 27 28 26 25 26 30 32 32 32 33 34 33 32 31 32 35 38 36 26 13 0 343 321 311 307 297 289 283 279 273 267 259 251 247 245 245 244 238 231 228 229 231 232 236 240 239 233 228 228 231 231 230 230 231 232 233 232 226 222 226 231 229 228 232 235 233 231
Height
720 724 728 732 735 737 740 742 745 747 749 752 753 755 757 759 761 764 766 768 770 772 774 776 778 780 782 784 786 789 791 793 794 796 797 799 800 802 803 804 805 806 807 808 810 811 812 813 814 815 816 816 817 818 819 820 821 822 823 823 823 824 825 826 825 825 827 829 831 832 833 834 835 836 837 838 838 838 838 839 838 838 838 837 835
717 720 724 728 731 733 736 738 741 743 745 748 750 752 754 756 759 761 762 765 767 768 769 772 775 777 779 780 783 786 788 789 791 793 795 796 798 799 801 802 803 804 805 806 807 808 810 810 811 812 813 813 814 816 817 818 819 820 820 821 821 822 823 824 824 824 826 829 830 831 832 833 834 835 835 836 837 837 837 837 837 836 836 836 834
713 716 720 724 727 730 733 734 737 739 741 744 746 748 750 753 756 757 759 761 763 765 766 768 771 774 776 777 779 782 784 786 788 790 792 794 795 797 799 800 801 802 803 803 804 805 807 808 809 809 810 812 813 814 815 816 816 817 818 818 819 820 821 822 823 822 824 827 829 830 831 832 833 834 834 835 835 836 836 835 835 835 834 834 834
710 713 717 720 723 726 728 730 733 735 737 739 742 744 747 749 752 754 755 758 760 762 763 765 768 770 772 773 775 778 781 783 786 788 790 791 793 795 796 797 799 799 800 801 802 803 805 807 807 808 809 810 812 812 813 814 814 815 816 817 818 819 820 821 822 821 822 825 827 828 829 831 832 832 833 833 834 834 834 834 834 834 833 833 833
706 709 713 716 719 721 724 727 729 731 733 735 738 741 743 746 748 750 752 754 756 759 760 762 764 766 768 770 772 775 777 780 783 785 787 789 791 792 794 795 797 797 798 799 800 801 803 805 805 806 807 808 809 810 811 812 813 814 814 815 816 817 818 819 820 821 821 823 825 827 828 830 831 831 831 831 831 832 832 832 832 832 832 832 832
702 705 709 711 714 717 720 723 726 727 730 732 735 738 741 743 745 747 749 750 753 755 757 758 759 762 764 766 768 771 774 777 780 782 785 787 788 790 791 793 794 795 796 797 798 800 801 802 803 804 805 805 807 808 809 810 811 812 813 814 815 816 817 818 819 820 821 822 823 825 827 828 829 830 829 829 829 830 829 829 830 830 830 830 830
697 700 703 706 708 711 715 719 722 724 726 729 732 735 738 740 742 743 745 747 749 752 753 754 756 758 761 762 765 768 771 773 776 779 782 784 785 787 789 791 792 793 794 795 797 798 799 800 801 801 802 803 804 806 807 808 809 810 811 812 813 815 816 818 818 820 821 821 822 824 825 826 827 828 828 828 828 829 828 828 828 828 828 828 828
692 694 698 701 704 707 710 714 718 721 723 726 729 732 734 737 739 741 743 744 746 748 750 752 753 755 758 759 761 764 767 770 773 775 779 781 783 785 786 788 789 791 793 794 795 795 796 798 799 799 800 801 803 804 805 806 807 809 810 811 812 813 815 817 817 818 819 820 821 822 823 824 826 826 826 827 827 827 827 828 827 827 827 827 827
688 690 692 695 699 702 706 710 713 717 719 722 725 727 730 733 736 738 740 741 743 745 747 749 750 753 755 756 758 760 764 766 769 772 775 778 780 782 784 786 787 789 791 792 792 793 794 796 797 798 799 800 801 802 803 805 806 807 808 809 811 812 814 815 816 816 817 818 819 820 821 822 823 824 825 825 826 826 826 827 827 827 827 826 825
684 685 688 691 695 698 701 706 709 712 715 717 720 723 726 729 733 735 737 739 740 742 744 746 748 749 752 753 755 757 760 763 765 768 772 775 778 780 782 784 785 787 789 790 790 791 793 794 795 796 798 799 800 801 802 803 804 805 806 808 809 811 812 813 814 814 815 816 817 818 819 820 821 822 823 824 824 825 825 826 826 826 825 824 823
681 681 684 687 690 693 697 701 704 707 710 713 716 720 722 725 729 732 734 736 737 739 741 743 744 746 748 750 752 754 756 759 761 765 769 772 775 778 780 782 783 785 787 787 788 789 791 792 793 794 795 797 798 799 801 802 803 804 805 806 808 809 810 811 812 813 814 814 815 816 817 818 819 820 822 822 823 824 824 825 825 825 824 823 822
678 677 679 682 685 689 692 696 699 702 705 709 712 716 719 722 725 728 730 733 735 736 738 740 741 743 745 747 749 751 753 755 757 761 765 769 772 775 777 780 781 783 784 783 785 786 788 790 791 791 793 794 796 797 799 801 802 803 804 805 806 808 808 810 811 812 813 813 814 815 816 817 818 819 820 821 822 823 824 824 824 824 823 822 821
674 673 674 677 680 684 687 690 694 697 701 705 709 713 716 718 721 725 727 729 732 734 736 737 738 740 742 744 746 748 750 751 753 757 761 765 769 772 774 777 779 781 781 781 782 784 785 787 788 789 790 792 794 796 797 799 800 802 803 805 806 807 808 809 810 810 811 812 813 814 815 816 817 818 819 820 821 822 822 823 823 822 822 821 820
670 668 669 672 675 679 683 685 689 693 697 702 706 710 713 715 718 722 724 727 729 730 732 734 735 737 739 741 743 746 747 748 750 754 757 761 765 768 771 775 777 778 779 780 780 782 783 784 785 786 787 789 791 793 794 796 798 800 802 804 805 806 807 808 809 810 811 812 812 813 814 815 816 817 818 819 820 821 821 821 821 821 821 820 819
666 663 664 667 670 674 678 681 686 690 694 699 703 706 709 712 716 719 721 723 725 726 728 731 732 733 735 738 741 743 744 744 746 750 754 758 762 765 769 772 774 776 778 778 779 780 781 782 783 784 785 786 787 790 791 794 796 799 801 803 804 806 806 808 809 810 811 812 812 813 813 814 815 816 817 818 819 820 820 820 821 820 820 819 818
660 658 659 662 666 670 674 678 682 686 691 695 699 702 705 708 712 715 717 720 721 722 724 727 728 729 732 734 737 739 740 740 742 746 750 755 759 762 766 769 771 773 775 776 777 778 779 780 781 782 783 784 785 788 790 792 794 797 799 801 803 805 806 807 808 809 810 810 811 811 812 813 814 815 816 817 818 819 819 819 820 819 819 817 816
651 653 655 658 662 666 670 673 678 682 686 691 694 697 701 704 707 710 712 714 715 717 720 722 724 726 728 730 733 735 735 735 738 743 747 752 756 759 763 767 768 770 772 774 775 775 776 778 779 780 782 782 784 786 788 791 793 795 798 799 801 803 804 805 806 807 808 809 810 810 811 812 813 814 815 816 816 817 818 818 818 818 817 815 813
645 649 652 654 658 662 666 670 674 678 682 685 689 692 695 699 702 705 708 709 711 714 717 719 721 723 725 727 730 732 732 732 736 740 743 748 753 756 760 764 766 768 770 772 772 772 773 775 776 778 779 780 782 785 787 790 792 794 796 797 799 801 802 803 804 805 807 808 809 809 810 811 812 813 814 815 815 816 817 817 817 816 815 814 812
641 645 648 651 654 658 662 666 670 674 678 681 684 687 691 695 700 702 705 707 709 712 715 717 719 721 723 725 728 730 729 729 733 736 739 744 749 752 757 761 763 765 767 769 770 770 771 773 774 777 777 778 780 783 785 789 791 793 794 796 797 799 800 801 802 803 804 806 807 808 809 810 811 811 812 813 813 814 815 815 816 816 814 813 812
638 643 646 647 651 654 658 662 666 670 674 677 680 684 688 693 697 700 702 704 707 710 712 714 716 718 720 722 725 727 725 725 729 732 735 740 745 748 752 757 759 762 765 766 767 768 769 770 772 774 775 776 778 781 784 787 790 792 793 794 795 796 797 799 800 801 802 803 805 806 807 808 809 810 810 810 811 812 812 813 814 814 814 813 812
636 641 644 644 647 651 654 659 663 666 670 674 678 682 687 691 694 696 699 701 704 706 709 711 713 715 717 720 723 724 723 723 725 729 732 736 741 745 749 752 756 760 762 763 764 766 767 768 769 771 772 774 776 779 782 785 788 791 792 792 792 793 795 796 797 799 800 802 803 805 805 806 807 807 808 808 808 809 810 810 811 812 812 812 811
632 637 640 641 643 648 652 656 661 665 669 673 677 681 684 688 690 693 695 698 701 704 706 708 710 712 715 717 719 721 722 722 723 726 730 734 738 742 745 749 753 756 759 760 761 763 765 766 767 768 771 773 775 778 780 783 786 789 790 790 790 791 793 795 795 797 798 799 801 802 802 803 804 804 805 805 806 806 807 808 808 809 809 810 809
629 633 636 638 641 646 651 655 659 663 667 671 675 678 681 685 687 690 692 695 699 701 703 705 707 709 712 714 716 718 718 719 721 724 727 731 735 739 742 746 749 753 756 757 759 761 763 764 764 767 770 772 775 778 781 782 784 786 787 788 789 790 792 793 794 794 796 797 797 798 799 799 800 801 802 802 803 804 805 805 806 807 807 807 807
627 629 632 635 639 645 650 654 658 661 665 669 672 675 678 681 684 687 690 693 696 697 699 701 703 706 708 710 713 715 715 716 719 722 725 729 732 736 740 743 746 750 753 755 757 759 760 761 762 765 768 769 771 775 779 780 782 784 786 787 788 790 791 792 792 792 793 794 794 795 795 796 797 798 799 799 800 801 802 803 804 804 805 805 805
623 626 629 633 638 644 649 653 657 660 663 667 670 672 676 678 681 684 687 689 691 693 695 697 699 702 705 707 710 712 713 715 718 720 723 727 730 734 738 741 744 748 751 753 755 756 758 759 762 764 766 767 769 773 776 778 780 783 785 786 787 789 790 791 791 791 791 791 791 792 793 793 794 795 796 797 798 799 800 801 802 802 803 803 803
621 624 628 632 637 642 647 651 655 659 662 665 668 671 673 676 678 681 683 685 687 688 690 693 696 700 702 704 707 710 711 713 716 718 721 725 728 732 736 740 743 746 749 750 752 754 757 760 762 764 765 766 768 771 774 777 779 782 783 785 787 788 789 789 789 789 789 789 789 790 790 791 792 793 794 795 796 797 798 799 800 800 800 801 800
624 625 628 631 635 640 644 648 653 656 660 663 666 669 671 673 676 678 680 682 684 685 687 691 695 699 701 703 706 708 710 711 712 714 717 721 725 729 733 737 740 744 746 749 751 754 757 759 762 764 765 766 768 770 773 775 778 779 781 783 785 786 787 787 787 787 787 788 788 788 789 790 791 791 792 793 794 795 796 797 797 798 798 798 798
631 630 631 633 636 639 643 647 650 653 657 660 663 666 669 671 674 676 678 680 682 684 686 690 694 698 700 702 705 707 708 708 708 709 711 714 719 724 729 733 736 740 743 746 749 752 754 757 760 763 764 766 768 770 772 774 775 777 779 781 783 784 785 786 786 786 786 786 786 787 787 788 789 789 789 790 791 793 794 795 795 795 795 795 795
638 638 638 639 640 641 643 646 649 652 655 659 661 664 667 669 672 675 677 679 681 683 685 689 692 695 696 698 700 702 703 702 701 703 707 710 714 718 723 727 732 736 738 741 745 749 752 755 758 760 762 764 767 768 770 771 773 775 777 779 781 782 782 783 783 784 784 784 785 785 785 786 786 787 787 788 789 791 791 792 792 793 793 792 792
643 643 643 643 643 643 644 647 649 652 655 658 661 663 666 668 671 674 676 678 680 682 684 686 688 690 692 693 694 695 695 694 695 700 706 711 714 717 720 723 728 734 737 740 744 747 749 751 754 756 758 761 763 765 767 768 770 772 773 775 777 778 778 779 780 781 782 782 783 783 783 784 784 785 786 787 787 788 789 789 790 790 790 790 790
644 645 646 646 645 645 647 649 651 653 655 657 660 662 665 668 670 672 675 677 679 681 683 684 686 687 688 690 690 690 691 692 695 699 704 708 712 716 719 721 724 729 734 738 742 744 745 747 750 752 755 757 759 761 763 764 766 768 769 771 773 773 774 776 777 778 779 780 780 781 781 782 782 783 784 785 785 786 786 786 787 787 787 787 787
648 649 650 650 649 649 650 651 653 655 657 658 660 662 664 667 669 671 673 675 677 679 681 682 683 684 685 687 688 688 691 693 695 697 701 704 708 712 715 718 720 724 730 735 738 740 742 744 746 748 750 753 755 757 759 760 762 763 765 766 768 769 770 771 773 775 776 776 777 778 779 780 780 781 782 782 783 783 783 783 784 784 785 785 785
652 653 653 653 652 651 652 654 655 657 659 660 662 662 664 665 667 669 671 673 675 677 679 680 680 681 683 685 686 688 690 692 693 695 698 702 705 708 713 716 718 722 727 732 735 737 740 741 742 743 746 748 750 753 755 756 757 759 761 762 763 764 766 768 770 771 772 773 774 775 776 777 778 779 780 780 781 781 782 782 782 782 782 783 783
654 655 656 656 655 655 655 657 658 659 661 662 662 663 664 664 666 668 670 672 674 676 677 678 678 679 681 682 684 686 688 690 691 693 695 699 702 707 712 716 719 722 725 728 731 734 736 736 737 739 741 744 746 748 750 752 754 755 757 758 759 760 762 764 766 767 768 770 771 772 773 775 775 776 777 778 778 779 780 780 781 781 781 781 781
658 659 659 659 659 658 659 660 661 662 662 662 663 663 664 664 666 667 669 671 673 674 675 676 676 677 679 680 681 683 684 687 689 691 694 697 700 705 710 715 718 721 722 725 728 730 732 733 733 735 737 739 741 743 745 748 749 751 752 753 754 756 758 760 762 764 765 767 768 769 770 771 772 773 774 775 776 777 777 778 778 779 779 779 779
662 662 662 661 661 660 660 661 662 663 663 662 663 663 664 665 666 667 669 670 672 673 674 674 675 676 678 679 680 681 682 684 687 689 692 695 698 702 706 710 713 716 719 722 724 726 728 729 730 732 733 735 737 739 741 743 745 747 748 749 750 752 754 756 758 760 763 764 764 765 767 768 769 770 771 772 773 773 774 775 775 776 777 777 777
665 665 664 663 662 661 661 662 662 662 662 663 663 664 664 666 667 668 669 671 671 672 673 673 674 676 677 678 680 681 682 683 685 688 691 693 697 700 703 705 708 712 715 718 720 721 723 725 726 728 729 731 733 735 737 739 741 743 745 746 747 748 750 752 754 757 759 760 761 762 763 764 765 766 768 768 769 770 771 772 772 773 774 775 776
669 669 667 666 665 664 663 663 663 663 664 664 665 665 666 667 668 669 670 671 671 672 673 673 674 675 676 677 678 680 681 683 685 688 690 693 695 699 701 704 706 708 710 713 715 717 719 721 723 724 726 728 730 732 734 736 738 740 741 743 744 745 747 749 751 752 754 756 758 759 760 761 762 763 764 765 766 767 768 769 770 771 772 773 774
671 671 670 669 668 667 667 666 666 666 666 666 667 667 668 669 670 670 671 671 672 673 673 673 674 675 676 676 677 678 680 681 683 686 688 691 694 697 700 703 705 707 709 711 713 715 718 720 721 722 724 726 727 729 731 733 736 738 739 740 742 743 744 746 748 749 750 753 755 757 757 758 759 760 761 762 763 764 765 766 767 768 769 770 771
673 673 673 672 671 670 670 670 670 669 669 669 669 669 670 670 671 671 672 673 673 673 674 674 675 675 676 676 677 678 679 680 681 683 686 689 692 696 698 701 704 707 710 712 713 715 717 718 720 721 723 724 726 727 729 731 734 736 737 738 739 740 741 743 745 746 748 750 752 754 755 755 756 757 758 759 760 761 762 763 764 765 766 767 768
676 676 676 675 674 673 673 673 672 672 672 672 672 672 672 672 672 672 673 673 674 674 675 676 676 677 677 677 678 680 681 682 683 685 687 689 692 695 697 700 703 707 710 712 713 715 716 718 719 720 721 723 725 726 728 730 732 733 734 735 736 737 739 740 742 743 745 748 750 751 752 753 754 754 755 756 757 759 760 760 762 762 763 765 766
680 679 678 678 677 677 676 675 675 675 675 675 675 674 674 673 673 673 673 674 674 675 676 677 678 678 679 680 682 684 685 687 688 688 688 690 692 695 698 701 704 707 708 710 712 714 716 717 719 719 720 722 723 725 726 728 729 730 731 732 733 735 736 737 739 740 743 746 748 749 750 751 751 752 753 754 755 756 757 758 759 760 761 762 763
683 682 681 681 681 680 680 679 679 679 678 677 677 676 676 675 675 675 674 675 676 676 677 678 678 679 681 683 686 687 689 690 691 690 690 690 692 695 698 701 704 706 707 709 711 713 715 715 717 718 719 720 721 723 725 726 727 727 728 728 730 732 734 736 738 739 741 744 746 746 747 748 749 749 750 751 752 753 754 755 756 757 759 760 761
688 686 686 685 685 685 684 683 682 682 681 679 679 678 678 677 678 677 677 677 677 678 679 680 680 680 682 684 687 690 692 693 693 692 692 692 693 695 697 700 703 705 706 707 709 711 712 714 715 716 717 719 720 722 723 725 725 725 725 726 728 730 732 734 736 737 739 741 743 744 745 745 746 747 748 748 749 751 752 753 754 755 757 758 759
693 692 691 690 689 689 688 687 685 684 683 682 681 681 680 680 680 681 681 681 681 682 683 683 683 683 684 686 689 692 694 693 693 693 693 694 695 696 698 700 702 704 706 707 708 710 711 713 714 716 717 718 719 720 722 723 723 723 724 726 727 728 730 732 734 736 738 739 740 742 742 743 743 744 745 746 747 748 749 750 751 753 755 756 756
698 697 696 695 694 693 691 690 689 687 686 685 684 684 683 683 683 684 685 685 684 685 686 686 687 687 688 690 691 692 692 692 693 694 695 696 696 697 698 700 701 703 705 707 708 709 711 712 713 714 716 717 718 719 720 721 722 722 723 725 726 728 729 731 733 735 736 736 737 739 740 740 741 741 742 744 745 746 746 748 749 751 752 753 754
702 700 699 698 697 696 694 693 692 690 690 689 688 687 687 687 687 687 688 687 687 687 688 689 690 690 690 690 691 692 692 693 694 695 696 696 697 698 698 699 700 701 703 705 706 708 709 710 712 713 714 716 717 717 718 719 720 721 722 723 725 726 727 728 730 732 733 733 734 736 737 738 739 739 740 741 743 744 745 746 747 748 750 750 751
705 704 702 701 700 699 698 697 695 694 694 694 693 692 691 691 691 690 690 690 689 690 690 691 691 691 691 692 693 693 694 695 696 696 697 697 698 698 699 699 700 701 702 703 704 705 706 707 709 711 712 714 715 716 717 718 719 720 721 721 722 722 723 725 728 730 730 730 731 733 734 735 736 736 737 738 740 741 742 744 744 746 747 748 748
710 708 707 706 704 703 703 701 700 699 699 699 698 697 696 696 695 695 694 693 693 693 693 693 693 693 693 693 694 695 695 696 697 697 698 699 699 699 700 700 701 702 702 703 704 704 705 706 707 708 710 711 712 713 715 716 717 718 718 719 719 719 721 723 726 727 727 727 728 729 731 732 733 733 735 736 737 739 740 742 742 743 744 745 746
714 713 712 710 709 708 707 706 705 705 704 703 703 702 702 701 700 700 698 698 697 697 696 696 696 696 696 696 696 696 697 697 697 698 699 699 700 701 701 701 702 702 703 704 704 704 705 706 706 707 708 709 710 711 713 714 715 716 716 717 717 718 720 721 723 724 724 725 726 727 728 729 730 731 732 734 735 736 738 739 740 741 742 743 743
717 715 715 714 713 712 711 710 710 709 708 708 708 708 707 706 705 705 703 702 702 701 700 699 699 698 698 699 699 699 699 700 700 700 701 701 701 701 701 702 702 702 703 703 703 704 705 705 706 706 707 708 708 709 710 711 713 714 714 715 716 717 718 719 720 722 722 723 723 725 726 727 728 729 730 732 733 734 735 736 738 739 740 740 741